Weather History for Prairie Du Chien, WI

Change the Weather History Date:

Tuesday, January 29, 2013

  Actual Average Record
Temperature  
Mean Temperature 40 °F -  
Max Temperature 48 °F 28 °F 48 °F (2013)
Min Temperature 32 °F 10 °F -24 °F (1965)
Degree Days  
Heating Degree Days 25    
Moisture  
Dew Point 38 °F    
Average Humidity 94    
Maximum Humidity 100    
Minimum Humidity 87    
Precipitation  
Precipitation 0.63 in - - ()
Sea Level Pressure  
Sea Level Pressure 29.56 in    
Wind  
Wind Speed 5 mph (NW)    
Max Wind Speed 10 mph    
Max Gust Speed -    
Visibility 5 miles    
Events Fog , Rain    
Averages and records for this station are not official NWS values.
T = Trace of Precipitation, MM = Missing Value Source: NWS Daily Summary

Daily Weather History Graph

Daily Weather History Graph

Search for Another Location

Airport:

Trip Planner

Search our weather history database for the weather conditions in past years. The results will help you decide how hot, cold, wet, or windy it might be!

Date:

Astronomy

Jan. 29, 2013 Rise Set
Actual Time 7:22 AM CST 5:13 PM CST
Civil Twilight 6:52 AM CST 5:43 PM CST
Nautical Twilight 6:17 AM CST 6:18 PM CST
Astronomical Twilight 5:44 AM CST 6:51 PM CST
Moon 8:16 PM CST (1/29) 8:14 AM CST (1/29)
Length of Visible Light 10h 51m
Length of Day
9h 51m
Waning Gibbous, 93% of the Moon is Illuminated
Jan 29
Waning Gibbous
Feb 3
Last Quarter
Feb 10
New
Feb 17
First Quarter
Feb 25
Full

Hourly Weather History & Observations

Time (CST) Temp. Windchill Dew Point Humidity Pressure Visibility Wind Dir Wind Speed Gust Speed Precip Events Conditions
12:15 AM 41.0 °F 36.4 °F 39.2 °F 93% 29.67 in 5.0 mi ESE 6.9 mph - 0.03 in Rain Light Rain
12:35 AM 41.0 °F 37.1 °F 39.2 °F 93% 29.66 in 3.0 mi East 5.8 mph - 0.14 in Rain Light Rain
12:55 AM 41.0 °F 35.8 °F 41.0 °F 100% 29.64 in 5.0 mi East 8.1 mph - 0.22 in Rain Rain
1:15 AM 41.0 °F 37.1 °F 41.0 °F 100% 29.63 in 1.2 mi ESE 5.8 mph - 0.16 in   Unknown
1:35 AM 42.8 °F 38.0 °F 42.8 °F 100% 29.61 in 4.0 mi ESE 8.1 mph - 0.20 in Rain Light Rain
1:55 AM 44.6 °F 40.2 °F 42.8 °F 93% 29.60 in 7.0 mi ESE 8.1 mph - 0.21 in   Light Drizzle
2:15 AM 44.6 °F 43.1 °F 42.8 °F 93% 29.60 in 10.0 mi SE 3.5 mph - N/A   Overcast
2:35 AM 44.6 °F - 42.8 °F 93% 29.59 in 7.0 mi Calm Calm - 0.01 in Rain Light Rain
2:55 AM 44.6 °F 42.2 °F 44.6 °F 100% 29.58 in 7.0 mi ENE 4.6 mph - 0.11 in   Mostly Cloudy
3:15 AM 42.8 °F - 42.8 °F 100% 29.57 in 3.0 mi Calm Calm - N/A   Overcast
3:35 AM 44.6 °F - 42.8 °F 93% 29.56 in 4.0 mi Calm Calm - N/A   Overcast
3:55 AM 44.6 °F 41.4 °F 44.6 °F 100% 29.54 in 4.0 mi East 5.8 mph - N/A   Overcast
4:15 AM 44.6 °F 40.2 °F 44.6 °F 100% 29.55 in 3.0 mi East 8.1 mph - 0.05 in Rain Heavy Rain
4:35 AM 44.6 °F 41.4 °F 44.6 °F 100% 29.52 in 2.0 mi ESE 5.8 mph - 0.07 in Rain Light Rain
4:55 AM 46.4 °F - 44.6 °F 93% 29.53 in 4.0 mi Calm Calm - 0.07 in   Light Drizzle
5:15 AM 44.6 °F - 44.6 °F 100% 29.53 in 1.5 mi Calm Calm - N/A Rain Light Rain
5:35 AM 48.2 °F - 46.4 °F 93% 29.52 in 4.0 mi ESE 3.5 mph - 0.01 in Rain Light Rain
5:55 AM 46.4 °F - 44.6 °F 93% 29.51 in 1.5 mi Calm Calm - 0.01 in   Overcast
6:15 AM 46.4 °F - 44.6 °F 93% 29.51 in 2.0 mi Calm Calm - N/A   Overcast
6:35 AM 46.4 °F - 44.6 °F 93% 29.51 in 0.8 mi Calm Calm - N/A   Overcast
6:55 AM 46.4 °F - 44.6 °F 93% 29.51 in 1.2 mi Calm Calm - N/A   Overcast
7:15 AM 48.2 °F - 46.4 °F 93% 29.52 in 1.5 mi Calm Calm - N/A   Overcast
7:35 AM 46.4 °F - 46.4 °F 100% 29.53 in 1.2 mi Calm Calm - N/A   Overcast
7:55 AM 46.4 °F - 44.6 °F 93% 29.53 in 0.8 mi Calm Calm - N/A   Overcast
8:15 AM 42.8 °F - 42.8 °F 100% 29.52 in 0.2 mi Calm Calm - N/A Fog Fog
8:35 AM 46.4 °F - 44.6 °F 93% 29.52 in 0.5 mi Calm Calm - N/A Fog Fog
8:55 AM 46.4 °F - 46.4 °F 100% 29.52 in 0.2 mi Calm Calm - N/A Fog Fog
9:15 AM 42.8 °F 38.6 °F 41.0 °F 93% 29.51 in 0.2 mi West 6.9 mph - N/A Fog Fog
9:35 AM 44.6 °F 40.2 °F 44.6 °F 100% 29.54 in 0.5 mi WNW 8.1 mph - N/A Fog Fog
9:55 AM 42.8 °F 38.6 °F 42.8 °F 100% 29.57 in 5.0 mi West 6.9 mph - N/A   Overcast
10:15 AM 42.8 °F 41.1 °F 42.8 °F 100% 29.58 in 4.0 mi NW 3.5 mph - N/A   Overcast
10:35 AM 42.8 °F 41.1 °F 41.0 °F 93% 29.59 in 3.0 mi WSW 3.5 mph - N/A   Overcast
10:55 AM 41.0 °F 37.1 °F 41.0 °F 100% 29.58 in 4.0 mi West 5.8 mph - N/A   Overcast
11:15 AM 41.0 °F 38.0 °F 39.2 °F 93% 29.59 in 4.0 mi West 4.6 mph - N/A   Overcast
11:35 AM 41.0 °F 39.0 °F 39.2 °F 93% 29.58 in 5.0 mi West 3.5 mph - N/A   Overcast
11:55 AM 39.2 °F 34.2 °F 39.2 °F 100% 29.58 in 5.0 mi West 6.9 mph - N/A   Overcast
12:15 PM 39.2 °F 34.2 °F 39.2 °F 100% 29.56 in 7.0 mi West 6.9 mph - N/A   Overcast
12:35 PM 39.2 °F 33.6 °F 39.2 °F 100% 29.58 in 5.0 mi West 8.1 mph - N/A   Overcast
12:55 PM 39.2 °F 33.0 °F 37.4 °F 93% 29.57 in 5.0 mi WNW 9.2 mph - N/A   Overcast
1:15 PM 39.2 °F 33.6 °F 37.4 °F 93% 29.58 in 5.0 mi West 8.1 mph - N/A   Overcast
1:35 PM 39.2 °F 33.6 °F 37.4 °F 93% 29.57 in 7.0 mi WNW 8.1 mph - N/A   Drizzle
1:55 PM 37.4 °F 32.1 °F 35.6 °F 93% 29.57 in 7.0 mi WNW 6.9 mph - N/A Rain Light Rain
2:15 PM 37.4 °F 32.1 °F 35.6 °F 93% 29.58 in 7.0 mi WNW 6.9 mph - N/A   Light Drizzle
2:35 PM 37.4 °F 32.8 °F 35.6 °F 93% 29.56 in 10.0 mi NW 5.8 mph - N/A   Overcast
2:55 PM 37.4 °F 32.1 °F 33.8 °F 87% 29.57 in 10.0 mi NW 6.9 mph - N/A   Overcast
3:15 PM 37.4 °F 32.8 °F 33.8 °F 87% 29.56 in 10.0 mi NNW 5.8 mph - N/A   Overcast
3:35 PM 37.4 °F 33.8 °F 33.8 °F 87% 29.53 in 10.0 mi North 4.6 mph - N/A   Light Drizzle
3:55 PM 37.4 °F 31.4 °F 33.8 °F 87% 29.56 in 10.0 mi NW 8.1 mph - N/A   Overcast
4:15 PM 37.4 °F 32.8 °F 33.8 °F 87% 29.56 in 10.0 mi NNW 5.8 mph - N/A   Overcast
4:35 PM 35.6 °F 31.7 °F 33.8 °F 93% 29.54 in 10.0 mi NNW 4.6 mph - N/A   Overcast
4:55 PM 35.6 °F 30.7 °F 32.0 °F 87% 29.52 in 10.0 mi North 5.8 mph - N/A   Overcast
5:15 PM 35.6 °F 28.6 °F 32.0 °F 87% 29.54 in 7.0 mi NNW 9.2 mph - N/A   Overcast
5:35 PM 35.6 °F 29.2 °F 32.0 °F 87% 29.57 in 7.0 mi NW 8.1 mph - N/A   Overcast
5:55 PM 35.6 °F 32.8 °F 32.0 °F 87% 29.57 in 7.0 mi NNW 3.5 mph - N/A   Overcast
6:15 PM 35.6 °F 29.9 °F 32.0 °F 87% 29.56 in 7.0 mi NNW 6.9 mph - N/A   Overcast
6:35 PM 35.6 °F 28.0 °F 32.0 °F 87% 29.56 in 7.0 mi NNW 10.4 mph - N/A   Overcast
6:55 PM 35.6 °F 31.7 °F 32.0 °F 87% 29.56 in 7.0 mi NNW 4.6 mph - N/A   Overcast
7:15 PM 35.6 °F 29.9 °F 32.0 °F 87% 29.55 in 7.0 mi North 6.9 mph - N/A   Overcast
7:35 PM 35.6 °F 32.8 °F 32.0 °F 87% 29.56 in 7.0 mi North 3.5 mph - N/A   Overcast
7:55 PM 35.6 °F 31.7 °F 32.0 °F 87% 29.56 in 7.0 mi NNW 4.6 mph - N/A Rain Light Rain
8:15 PM 33.8 °F 26.4 °F 32.0 °F 93% 29.56 in 7.0 mi NNW 9.2 mph - N/A Rain Rain
8:35 PM 33.8 °F 26.4 °F 32.0 °F 93% 29.55 in 7.0 mi NNW 9.2 mph - N/A Rain Light Rain
8:55 PM 33.8 °F 28.6 °F 32.0 °F 93% 29.54 in 10.0 mi NNW 5.8 mph - N/A   Light Drizzle
9:15 PM 33.8 °F - 32.0 °F 93% 29.57 in 10.0 mi Calm Calm - N/A   Light Drizzle
9:35 PM 35.6 °F 29.9 °F 32.0 °F 87% 29.56 in 10.0 mi NNW 6.9 mph - N/A Rain Rain
9:55 PM 33.8 °F 27.7 °F 32.0 °F 93% 29.55 in 5.0 mi North 6.9 mph - N/A Rain Light Rain
10:15 PM 33.8 °F 27.7 °F 32.0 °F 93% 29.56 in 7.0 mi NNW 6.9 mph - N/A   Overcast
10:35 PM 33.8 °F 28.6 °F 32.0 °F 93% 29.56 in 7.0 mi NNW 5.8 mph - N/A   Overcast
10:55 PM 33.8 °F 28.6 °F 32.0 °F 93% 29.58 in 3.0 mi NW 5.8 mph - N/A   Overcast
11:15 PM 33.8 °F 29.6 °F 32.0 °F 93% 29.56 in 3.0 mi North 4.6 mph - N/A   Overcast
11:35 PM 32.0 °F 26.4 °F 32.0 °F 100% 29.57 in 3.0 mi WNW 5.8 mph - N/A   Overcast
11:55 PM 33.8 °F 28.6 °F 32.0 °F 93% 29.54 in 5.0 mi North 5.8 mph - 0.01 in   Overcast